Total_Precipitation_Accumulation
0.28 0.35 0.80 1.16 1.20 1.12 1.10 1.11 1.06 1.03 0.97 0.94 0.94 0.89 0.86 0.85 0.84 0.82 0.87 0.90 1.01 1.10 1.18 1.21 1.28 1.32 1.30 1.17 0.97 0.72 0.59 0.54 0.50 0.45 0.42 0.41 0.47 0.54 0.50 0.47 0.48 0.59 0.77
0.27 0.40 0.83 1.16 1.25 1.12 1.05 1.06 1.03 1.02 1.00 1.01 1.11 1.08 1.02 0.99 1.00 1.00 1.05 1.09 1.16 1.31 1.37 1.36 1.35 1.36 1.28 1.10 0.85 0.63 0.43 0.35 0.29 0.20 0.16 0.19 0.32 0.45 0.44 0.40 0.43 0.61 0.71
0.30 0.47 0.82 1.17 1.25 1.18 1.09 1.05 0.99 1.00 1.05 1.11 1.16 1.19 1.17 1.11 1.11 1.17 1.22 1.23 1.25 1.32 1.41 1.46 1.38 1.30 1.15 0.93 0.71 0.55 0.41 0.30 0.21 0.17 0.18 0.25 0.38 0.57 0.54 0.47 0.56 0.69 0.72
0.41 0.52 0.74 1.14 1.31 1.31 1.25 1.12 1.09 1.12 1.12 1.22 1.24 1.28 1.37 1.31 1.24 1.24 1.26 1.24 1.20 1.18 1.25 1.25 1.10 1.00 0.88 0.72 0.64 0.51 0.40 0.29 0.21 0.19 0.27 0.34 0.46 0.76 0.75 0.66 0.66 0.71 0.73
0.59 0.62 0.87 1.21 1.41 1.48 1.45 1.28 1.22 1.25 1.22 1.28 1.32 1.41 1.50 1.50 1.37 1.27 1.20 1.18 1.10 1.04 0.96 0.92 0.87 0.79 0.72 0.62 0.56 0.46 0.37 0.27 0.21 0.20 0.25 0.37 0.60 1.01 0.86 0.75 0.71 0.73 0.70
0.73 0.82 1.09 1.42 1.61 1.68 1.61 1.53 1.46 1.45 1.40 1.40 1.37 1.40 1.51 1.60 1.50 1.33 1.15 1.03 0.94 0.90 0.84 0.76 0.72 0.72 0.67 0.57 0.50 0.41 0.33 0.26 0.17 0.18 0.24 0.34 0.59 1.03 0.88 0.80 0.72 0.70 0.69
0.77 0.93 1.20 1.59 1.81 1.92 1.88 1.87 1.87 1.80 1.68 1.58 1.53 1.51 1.54 1.57 1.44 1.29 1.07 0.93 0.87 0.86 0.84 0.74 0.69 0.67 0.68 0.61 0.51 0.42 0.31 0.23 0.17 0.19 0.26 0.38 0.66 1.06 0.98 0.86 0.75 0.72 0.71
0.83 1.06 1.36 1.75 1.90 2.01 2.05 2.05 2.03 1.98 1.88 1.77 1.68 1.62 1.61 1.56 1.40 1.24 1.10 0.96 0.88 0.87 0.89 0.79 0.71 0.66 0.65 0.60 0.53 0.44 0.29 0.19 0.16 0.19 0.28 0.40 0.70 0.95 0.89 0.79 0.76 0.75 0.71
1.08 1.29 1.55 1.83 1.99 2.13 2.08 2.04 2.06 2.01 1.94 1.82 1.73 1.62 1.51 1.44 1.35 1.22 1.09 0.99 0.93 0.90 0.94 0.88 0.77 0.67 0.64 0.61 0.55 0.40 0.26 0.18 0.17 0.20 0.25 0.41 0.67 0.88 0.82 0.76 0.78 0.76 0.73
1.52 1.67 1.83 1.95 2.03 2.10 2.05 1.99 2.06 2.06 2.03 1.99 1.85 1.59 1.40 1.30 1.32 1.22 1.05 0.98 0.91 0.88 0.90 0.89 0.83 0.71 0.63 0.55 0.49 0.38 0.30 0.25 0.20 0.21 0.27 0.37 0.64 0.84 0.82 0.78 0.77 0.78 0.78
2.07 2.02 2.14 2.20 2.23 2.24 2.21 2.09 2.18 2.20 2.17 2.07 1.98 1.70 1.49 1.43 1.36 1.24 1.05 0.94 0.89 0.84 0.85 0.90 0.85 0.77 0.65 0.49 0.42 0.38 0.38 0.34 0.27 0.31 0.36 0.48 0.73 0.89 0.94 0.91 0.80 0.79 0.79
2.32 2.27 2.27 2.35 2.28 2.33 2.32 2.33 2.39 2.31 2.26 2.14 1.90 1.80 1.70 1.59 1.44 1.25 1.15 1.02 0.95 0.89 0.88 0.94 0.90 0.77 0.64 0.52 0.42 0.38 0.37 0.37 0.37 0.35 0.40 0.62 0.92 1.05 1.05 0.99 0.90 0.86 0.81
2.41 2.50 2.50 2.57 2.53 2.42 2.46 2.39 2.44 2.43 2.38 2.31 2.09 1.95 1.91 1.89 1.70 1.51 1.33 1.29 1.18 1.05 1.03 0.98 0.96 0.72 0.57 0.50 0.47 0.41 0.36 0.37 0.40 0.41 0.41 0.60 0.95 1.13 1.14 1.08 1.04 0.98 0.92
2.71 2.74 2.79 2.78 2.81 2.61 2.52 2.46 2.50 2.51 2.43 2.32 2.11 1.99 1.94 1.87 1.78 1.60 1.39 1.26 1.22 1.07 1.04 0.99 0.84 0.69 0.61 0.53 0.49 0.48 0.44 0.40 0.39 0.45 0.45 0.51 0.79 1.06 1.15 1.18 1.17 1.10 1.06
2.98 3.04 3.10 2.99 2.99 2.92 2.73 2.56 2.56 2.66 2.61 2.48 2.29 2.09 1.93 1.78 1.67 1.63 1.56 1.45 1.31 1.18 1.07 1.02 0.90 0.80 0.72 0.62 0.54 0.50 0.48 0.43 0.41 0.41 0.43 0.47 0.61 0.89 1.16 1.28 1.38 1.38 1.35
3.19 3.38 3.43 3.29 3.11 3.08 2.90 2.62 2.54 2.69 2.79 2.83 2.56 2.24 2.18 2.02 1.88 1.77 1.68 1.60 1.46 1.33 1.23 1.13 1.01 0.98 0.89 0.78 0.66 0.55 0.53 0.52 0.49 0.45 0.42 0.44 0.50 0.64 0.97 1.27 1.45 1.50 1.50
3.08 3.43 3.62 3.55 3.45 3.26 3.17 2.95 2.65 2.77 2.90 2.93 2.80 2.53 2.45 2.33 2.16 2.07 1.91 1.72 1.49 1.40 1.38 1.36 1.33 1.28 1.17 0.96 0.80 0.68 0.61 0.58 0.55 0.48 0.44 0.44 0.45 0.50 0.72 1.05 1.26 1.41 1.48
3.04 3.24 3.59 3.67 3.71 3.58 3.38 3.22 2.88 2.78 2.90 2.90 2.77 2.65 2.55 2.47 2.36 2.27 2.09 1.89 1.72 1.63 1.56 1.52 1.51 1.46 1.34 1.13 0.94 0.85 0.75 0.66 0.59 0.56 0.51 0.49 0.48 0.47 0.56 0.77 0.94 1.10 1.33
3.01 3.16 3.46 3.64 3.77 3.90 3.84 3.71 3.34 3.01 3.00 3.01 2.86 2.65 2.56 2.50 2.44 2.35 2.19 2.02 1.92 1.85 1.73 1.62 1.60 1.55 1.49 1.33 1.15 1.02 0.95 0.87 0.79 0.74 0.67 0.62 0.61 0.60 0.58 0.65 0.73 0.82 1.02
3.26 3.40 3.50 3.72 3.98 4.25 4.43 4.30 4.05 3.53 3.19 3.10 3.00 2.80 2.60 2.51 2.46 2.40 2.29 2.17 2.06 2.01 1.92 1.80 1.67 1.61 1.55 1.55 1.46 1.30 1.18 1.10 0.99 0.90 0.81 0.74 0.74 0.75 0.74 0.72 0.68 0.68 0.79
3.35 3.57 3.69 3.74 4.00 4.35 4.34 4.15 3.93 3.66 3.39 3.13 3.04 3.00 2.80 2.63 2.50 2.44 2.31 2.31 2.21 2.08 2.00 1.95 1.94 1.92 1.81 1.79 1.84 1.71 1.46 1.32 1.24 1.08 0.96 0.87 0.83 0.86 0.86 0.84 0.78 0.71 0.73
3.10 3.49 3.58 3.78 4.03 4.30 4.23 4.13 4.04 4.00 3.82 3.53 3.36 3.11 2.95 2.79 2.60 2.51 2.43 2.31 2.26 2.19 2.09 2.03 2.02 2.12 2.19 2.16 2.14 2.12 1.98 1.77 1.43 1.18 1.10 1.00 0.94 0.98 1.02 1.00 0.93 0.87 0.82
2.56 3.07 3.31 3.46 3.82 4.09 4.28 4.62 4.65 4.47 4.16 3.70 3.41 3.24 3.07 3.04 2.89 2.66 2.60 2.49 2.33 2.24 2.17 2.08 1.94 1.91 2.05 2.23 2.26 2.37 2.19 1.88 1.57 1.37 1.19 1.10 1.04 1.01 1.01 1.04 1.03 0.98 0.93
2.16 2.62 3.05 3.34 3.61 3.82 4.00 4.24 4.38 4.23 3.85 3.47 3.25 3.26 3.31 3.25 3.24 3.08 2.86 2.70 2.58 2.40 2.24 2.20 2.18 2.05 2.00 2.08 2.17 2.12 2.02 1.77 1.70 1.61 1.37 1.23 1.16 1.11 1.06 1.02 1.00 1.01 1.06
1.91 2.37 2.78 3.10 3.42 3.60 3.74 3.86 4.05 4.11 3.96 3.79 3.55 3.46 3.48 3.41 3.30 3.19 3.11 2.94 2.75 2.64 2.50 2.39 2.31 2.29 2.23 2.14 2.12 2.05 2.02 1.81 1.59 1.58 1.47 1.31 1.28 1.22 1.16 1.09 1.02 1.03 1.08
1.76 2.04 2.46 2.82 3.22 3.47 3.61 3.83 3.89 3.82 3.85 3.84 3.54 3.50 3.50 3.58 3.50 3.26 3.10 3.03 2.91 2.82 2.72 2.63 2.56 2.49 2.41 2.28 2.19 2.14 2.14 2.10 1.84 1.70 1.57 1.36 1.34 1.27 1.25 1.22 1.17 1.12 1.13